Time,TemperatureC,DewpointC,PressurehPa,WindDirection,WindDirectionDegrees,WindSpeedKMH,WindSpeedGustKMH,Humidity,HourlyPrecipMM,Conditions,Clouds,dailyrainMM,SoftwareType,DateUTC
2018-01-18 00:04:00,3.4,-3.8,1017.5,SSW,202,2.6,3.5,59,0.0,,,0.0,Sint +Wind +PI,2018-01-17 23:04:00,
2018-01-18 00:09:00,3.6,-3.7,1017.5,North,0,0.0,2.6,59,0.0,,,0.0,Sint +Wind +PI,2018-01-17 23:09:00,
2018-01-18 00:14:00,3.3,-3.9,1017.5,NE,45,1.1,2.6,59,0.0,,,0.0,Sint +Wind +PI,2018-01-17 23:14:00,
2018-01-18 00:19:00,2.5,-4.4,1017.5,NE,45,1.1,2.6,60,0.0,,,0.0,Sint +Wind +PI,2018-01-17 23:19:00,
2018-01-18 00:24:00,2.1,-4.6,1017.5,NE,45,2.6,3.5,61,0.0,,,0.0,Sint +Wind +PI,2018-01-17 23:24:00,
2018-01-18 00:29:00,1.7,-4.8,1017.5,NE,45,1.1,2.6,62,0.0,,,0.0,Sint +Wind +PI,2018-01-17 23:29:00,
2018-01-18 00:35:00,1.4,-4.9,1017.5,NE,45,1.1,2.6,63,0.0,,,0.0,Sint +Wind +PI,2018-01-17 23:35:00,
2018-01-18 00:40:00,1.3,-4.7,1017.5,SE,135,1.1,2.6,64,0.0,,,0.0,Sint +Wind +PI,2018-01-17 23:40:00,
2018-01-18 00:46:00,1.1,-4.9,1017.5,North,0,0.0,0.0,64,0.0,,,0.0,Sint +Wind +PI,2018-01-17 23:46:00,
2018-01-18 00:51:00,0.8,-5.2,1017.5,North,0,0.0,0.0,64,0.0,,,0.0,Sint +Wind +PI,2018-01-17 23:51:00,
2018-01-18 00:56:00,0.5,-5.7,1017.5,North,0,0.0,0.0,63,0.0,,,0.0,Sint +Wind +PI,2018-01-17 23:56:00,
2018-01-18 01:01:00,0.3,-5.7,1017.5,North,0,0.0,0.0,64,0.0,,,0.0,Sint +Wind +PI,2018-01-18 00:01:00,
2018-01-18 01:06:00,0.3,-5.5,1017.2,NW,315,1.1,2.6,65,0.0,,,0.0,Sint +Wind +PI,2018-01-18 00:06:00,
2018-01-18 01:11:00,0.8,-4.8,1017.2,South,180,0.0,2.6,66,0.0,,,0.0,Sint +Wind +PI,2018-01-18 00:11:00,
2018-01-18 01:16:00,1.2,-4.1,1017.2,South,180,1.1,2.6,68,0.0,,,0.0,Sint +Wind +PI,2018-01-18 00:16:00,
2018-01-18 01:21:00,1.4,-3.7,1017.5,South,180,1.1,2.6,69,0.0,,,0.0,Sint +Wind +PI,2018-01-18 00:21:00,
2018-01-18 01:26:00,1.6,-3.4,1017.5,South,180,0.0,1.1,69,0.0,,,0.0,Sint +Wind +PI,2018-01-18 00:26:00,
2018-01-18 01:31:00,1.5,-3.8,1017.5,South,180,1.1,2.6,68,0.0,,,0.0,Sint +Wind +PI,2018-01-18 00:31:00,
2018-01-18 01:36:00,1.3,-4.2,1017.5,South,180,2.6,3.5,67,0.0,,,0.0,Sint +Wind +PI,2018-01-18 00:36:00,
2018-01-18 01:41:00,1.1,-4.6,1017.8,SW,225,1.1,2.6,66,0.0,,,0.0,Sint +Wind +PI,2018-01-18 00:41:00,
2018-01-18 01:46:00,1.1,-4.3,1017.8,NE,45,2.6,3.5,67,0.0,,,0.0,Sint +Wind +PI,2018-01-18 00:46:00,
2018-01-18 01:51:00,1.3,-3.9,1017.8,NW,315,1.1,2.6,68,0.0,,,0.0,Sint +Wind +PI,2018-01-18 00:51:00,
2018-01-18 01:56:00,1.3,-3.9,1017.8,West,270,0.0,0.0,68,0.0,,,0.0,Sint +Wind +PI,2018-01-18 00:56:00,
2018-01-18 02:01:00,1.0,-4.4,1017.8,South,180,1.1,2.6,67,0.0,,,0.0,Sint +Wind +PI,2018-01-18 01:01:00,
2018-01-18 02:06:00,1.0,-4.4,1018.2,South,180,1.1,2.6,67,0.0,,,0.0,Sint +Wind +PI,2018-01-18 01:06:00,
2018-01-18 02:11:00,0.5,-4.9,1017.8,NE,45,1.1,2.6,67,0.0,,,0.0,Sint +Wind +PI,2018-01-18 01:11:00,
2018-01-18 02:16:00,0.6,-4.2,1018.2,NE,45,0.0,1.1,70,0.0,,,0.0,Sint +Wind +PI,2018-01-18 01:16:00,
2018-01-18 02:21:00,0.5,-4.3,1018.2,East,90,0.0,0.0,70,0.0,,,0.0,Sint +Wind +PI,2018-01-18 01:21:00,
2018-01-18 02:26:00,0.5,-4.5,1018.5,East,90,0.0,0.0,69,0.0,,,0.0,Sint +Wind +PI,2018-01-18 01:26:00,
2018-01-18 02:31:00,0.3,-4.7,1018.5,NE,45,1.1,2.6,69,0.0,,,0.0,Sint +Wind +PI,2018-01-18 01:31:00,
2018-01-18 02:36:00,0.3,-4.5,1018.5,North,0,1.1,2.6,70,0.0,,,0.0,Sint +Wind +PI,2018-01-18 01:36:00,
2018-01-18 02:41:00,0.4,-4.2,1018.5,NW,315,1.1,3.5,71,0.0,,,0.0,Sint +Wind +PI,2018-01-18 01:41:00,
2018-01-18 02:46:00,0.6,-4.1,1018.5,South,180,2.6,3.5,71,0.0,,,0.0,Sint +Wind +PI,2018-01-18 01:46:00,
2018-01-18 02:51:00,0.9,-3.8,1018.5,North,0,0.0,2.6,71,0.0,,,0.0,Sint +Wind +PI,2018-01-18 01:51:00,
2018-01-18 02:57:00,0.8,-4.1,1018.5,North,0,1.1,2.6,70,0.0,,,0.0,Sint +Wind +PI,2018-01-18 01:57:00,
2018-01-18 03:02:00,0.8,-4.1,1018.2,SW,225,1.1,2.6,70,0.0,,,0.0,Sint +Wind +PI,2018-01-18 02:02:00,
2018-01-18 03:07:00,1.0,-3.8,1018.2,SE,135,1.1,2.6,70,0.0,,,0.0,Sint +Wind +PI,2018-01-18 02:07:00,
2018-01-18 03:12:00,1.0,-3.8,1018.2,South,180,0.0,2.6,70,0.0,,,0.0,Sint +Wind +PI,2018-01-18 02:12:00,
2018-01-18 03:17:00,0.9,-3.9,1018.5,South,180,1.1,2.6,70,0.0,,,0.0,Sint +Wind +PI,2018-01-18 02:17:00,
2018-01-18 03:22:00,1.0,-3.8,1018.5,SW,225,5.0,5.0,70,0.0,,,0.0,Sint +Wind +PI,2018-01-18 02:22:00,
2018-01-18 03:27:00,1.2,-3.7,1018.5,South,180,2.6,3.5,70,0.0,,,0.0,Sint +Wind +PI,2018-01-18 02:27:00,
2018-01-18 03:32:00,1.2,-3.7,1018.5,SE,135,1.1,2.6,70,0.0,,,0.0,Sint +Wind +PI,2018-01-18 02:32:00,
2018-01-18 03:37:00,1.3,-3.6,1018.8,NW,315,1.1,2.6,70,0.0,,,0.0,Sint +Wind +PI,2018-01-18 02:37:00,
2018-01-18 03:42:00,1.3,-3.6,1018.5,NW,315,1.1,2.6,70,0.0,,,0.0,Sint +Wind +PI,2018-01-18 02:42:00,
2018-01-18 03:47:00,1.2,-3.8,1018.5,NW,315,0.0,0.0,69,0.0,,,0.0,Sint +Wind +PI,2018-01-18 02:47:00,
2018-01-18 03:52:00,0.9,-4.3,1018.5,NW,315,0.0,0.0,68,0.0,,,0.0,Sint +Wind +PI,2018-01-18 02:52:00,
2018-01-18 03:57:00,0.7,-4.5,1018.8,South,180,0.0,2.6,68,0.0,,,0.0,Sint +Wind +PI,2018-01-18 02:57:00,
2018-01-18 04:02:00,0.7,-4.3,1018.5,South,180,0.0,0.0,69,0.0,,,0.0,Sint +Wind +PI,2018-01-18 03:02:00,
2018-01-18 04:07:00,0.7,-4.2,1018.5,NW,315,0.0,0.0,70,0.0,,,0.0,Sint +Wind +PI,2018-01-18 03:07:00,
2018-01-18 04:12:00,0.7,-4.2,1018.2,North,0,1.1,2.6,70,0.0,,,0.0,Sint +Wind +PI,2018-01-18 03:12:00,
2018-01-18 04:17:00,0.7,-4.2,1018.2,South,180,2.6,3.5,70,0.0,,,0.0,Sint +Wind +PI,2018-01-18 03:17:00,
2018-01-18 04:22:00,0.8,-4.1,1017.8,South,180,1.1,2.6,70,0.0,,,0.0,Sint +Wind +PI,2018-01-18 03:22:00,
2018-01-18 04:27:00,0.9,-3.9,1018.2,West,270,1.1,2.6,70,0.0,,,0.0,Sint +Wind +PI,2018-01-18 03:27:00,
2018-01-18 04:32:00,1.0,-3.8,1018.2,NW,315,1.1,2.6,70,0.0,,,0.0,Sint +Wind +PI,2018-01-18 03:32:00,
2018-01-18 04:37:00,1.0,-3.8,1017.8,South,180,1.1,2.6,70,0.0,,,0.0,Sint +Wind +PI,2018-01-18 03:37:00,
2018-01-18 04:42:00,1.0,-3.8,1017.8,NW,315,1.1,2.6,70,0.0,,,0.0,Sint +Wind +PI,2018-01-18 03:42:00,
2018-01-18 04:47:00,1.1,-3.8,1017.8,East,90,1.1,2.6,70,0.0,,,0.0,Sint +Wind +PI,2018-01-18 03:47:00,
2018-01-18 04:52:00,1.0,-3.8,1017.8,South,180,0.0,0.0,70,0.0,,,0.0,Sint +Wind +PI,2018-01-18 03:52:00,
2018-01-18 04:57:00,1.0,-3.8,1017.8,NW,315,1.1,3.5,70,0.0,,,0.0,Sint +Wind +PI,2018-01-18 03:57:00,
2018-01-18 05:02:00,1.0,-3.8,1017.8,SW,225,2.6,3.5,70,0.0,,,0.0,Sint +Wind +PI,2018-01-18 04:02:00,
2018-01-18 05:07:00,1.0,-3.8,1017.8,West,270,1.1,2.6,70,0.0,,,0.0,Sint +Wind +PI,2018-01-18 04:07:00,
2018-01-18 05:12:00,1.0,-3.8,1018.2,West,270,2.6,3.5,70,0.0,,,0.0,Sint +Wind +PI,2018-01-18 04:12:00,
2018-01-18 05:17:00,1.1,-3.6,1018.2,North,0,2.6,3.5,71,0.0,,,0.0,Sint +Wind +PI,2018-01-18 04:17:00,
2018-01-18 05:22:00,1.0,-3.7,1018.2,SW,225,1.1,2.6,71,0.0,,,0.0,Sint +Wind +PI,2018-01-18 04:22:00,
2018-01-18 05:27:00,1.0,-3.7,1018.2,West,270,2.6,3.5,71,0.0,,,0.0,Sint +Wind +PI,2018-01-18 04:27:00,
2018-01-18 05:32:00,1.1,-3.6,1018.2,North,0,1.1,2.6,71,0.0,,,0.0,Sint +Wind +PI,2018-01-18 04:32:00,
2018-01-18 05:37:00,1.0,-3.7,1018.2,North,0,1.1,2.6,71,0.0,,,0.0,Sint +Wind +PI,2018-01-18 04:37:00,
2018-01-18 05:42:00,1.0,-3.7,1018.2,SW,225,0.0,1.1,71,0.0,,,0.0,Sint +Wind +PI,2018-01-18 04:42:00,
2018-01-18 05:47:00,1.0,-3.7,1018.2,SW,225,1.1,3.5,71,0.0,,,0.0,Sint +Wind +PI,2018-01-18 04:47:00,
2018-01-18 05:52:00,1.0,-3.7,1018.5,North,0,2.6,3.5,71,0.0,,,0.0,Sint +Wind +PI,2018-01-18 04:52:00,
2018-01-18 05:57:00,1.0,-3.7,1018.5,North,0,1.1,3.5,71,0.0,,,0.0,Sint +Wind +PI,2018-01-18 04:57:00,
2018-01-18 06:02:00,1.1,-3.6,1018.5,SW,225,2.6,5.0,71,0.0,,,0.0,Sint +Wind +PI,2018-01-18 05:02:00,
2018-01-18 06:07:00,1.2,-3.4,1018.2,NW,315,1.1,2.6,71,0.0,,,0.0,Sint +Wind +PI,2018-01-18 05:07:00,
2018-01-18 06:12:00,1.4,-3.3,1018.5,West,270,1.1,2.6,71,0.0,,,0.0,Sint +Wind +PI,2018-01-18 05:12:00,
2018-01-18 06:17:00,1.4,-3.3,1018.2,SW,225,2.6,3.5,71,0.0,,,0.0,Sint +Wind +PI,2018-01-18 05:17:00,
2018-01-18 06:22:00,1.5,-3.2,1018.5,SW,225,0.0,1.1,71,0.0,,,0.0,Sint +Wind +PI,2018-01-18 05:22:00,
2018-01-18 06:27:00,1.5,-3.2,1018.2,West,270,1.1,2.6,71,0.0,,,0.0,Sint +Wind +PI,2018-01-18 05:27:00,
2018-01-18 06:32:00,1.6,-3.1,1017.8,South,180,2.6,3.5,71,0.0,,,0.0,Sint +Wind +PI,2018-01-18 05:32:00,
2018-01-18 06:37:00,1.6,-3.1,1017.8,West,270,0.0,0.0,71,0.0,,,0.0,Sint +Wind +PI,2018-01-18 05:37:00,
2018-01-18 06:42:00,1.6,-3.1,1017.8,SW,225,2.6,3.5,71,0.0,,,0.0,Sint +Wind +PI,2018-01-18 05:42:00,
2018-01-18 06:47:00,1.7,-3.0,1018.2,South,180,1.1,2.6,71,0.0,,,0.0,Sint +Wind +PI,2018-01-18 05:47:00,
2018-01-18 06:52:00,1.6,-3.1,1018.2,NW,315,2.6,3.5,71,0.0,,,0.0,Sint +Wind +PI,2018-01-18 05:52:00,
2018-01-18 06:57:00,1.6,-3.1,1018.5,NE,45,1.1,2.6,71,0.0,,,0.0,Sint +Wind +PI,2018-01-18 05:57:00,
2018-01-18 07:02:00,1.5,-3.2,1018.5,South,180,1.1,2.6,71,0.0,,,0.0,Sint +Wind +PI,2018-01-18 06:02:00,
2018-01-18 07:07:00,1.5,-3.2,1018.5,NW,315,1.1,3.5,71,0.0,,,0.0,Sint +Wind +PI,2018-01-18 06:07:00,
2018-01-18 07:12:00,1.4,-3.3,1018.5,North,0,2.6,3.5,71,0.0,,,0.0,Sint +Wind +PI,2018-01-18 06:12:00,
2018-01-18 07:13:00,1.4,-3.3,1018.5,NE,45,2.6,3.5,71,0.0,,,0.0,Sint +Wind +PI,2018-01-18 06:13:00,
2018-01-18 07:18:00,1.3,-3.4,1018.8,NW,315,1.1,3.5,71,0.0,,,0.0,Sint +Wind +PI,2018-01-18 06:18:00,
2018-01-18 07:23:00,1.2,-3.4,1018.8,North,0,2.6,3.5,71,0.0,,,0.0,Sint +Wind +PI,2018-01-18 06:23:00,
2018-01-18 07:28:00,1.1,-3.6,1018.5,SW,225,1.1,2.6,71,0.0,,,0.0,Sint +Wind +PI,2018-01-18 06:28:00,
2018-01-18 07:33:00,1.1,-3.6,1018.8,North,0,2.6,3.5,71,0.0,,,0.0,Sint +Wind +PI,2018-01-18 06:33:00,
2018-01-18 07:38:00,1.1,-3.4,1018.5,SW,225,0.0,2.6,72,0.0,,,0.0,Sint +Wind +PI,2018-01-18 06:38:00,
2018-01-18 07:43:00,1.1,-3.4,1018.5,North,0,1.1,2.6,72,0.0,,,0.0,Sint +Wind +PI,2018-01-18 06:43:00,
2018-01-18 07:48:00,1.2,-3.3,1018.5,NW,315,1.1,3.5,72,0.0,,,0.0,Sint +Wind +PI,2018-01-18 06:48:00,
2018-01-18 07:53:00,1.2,-3.3,1018.5,NW,315,2.6,3.5,72,0.0,,,0.0,Sint +Wind +PI,2018-01-18 06:53:00,
2018-01-18 07:58:00,1.3,-3.2,1018.8,SW,225,1.1,1.1,72,0.0,,,0.0,Sint +Wind +PI,2018-01-18 06:58:00,
2018-01-18 08:03:00,1.4,-3.1,1018.8,NW,315,1.1,2.6,72,0.0,,,0.0,Sint +Wind +PI,2018-01-18 07:03:00,
2018-01-18 08:08:00,1.4,-3.1,1018.8,South,180,2.6,5.0,72,0.0,,,0.0,Sint +Wind +PI,2018-01-18 07:08:00,
2018-01-18 08:13:00,1.4,-3.1,1018.8,North,0,0.0,0.0,72,0.0,,,0.0,Sint +Wind +PI,2018-01-18 07:13:00,
2018-01-18 08:18:00,1.5,-3.0,1018.8,SE,135,3.5,6.1,72,0.0,,,0.0,Sint +Wind +PI,2018-01-18 07:18:00,
2018-01-18 08:23:00,1.6,-2.7,1018.8,West,270,1.1,2.6,73,0.0,,,0.0,Sint +Wind +PI,2018-01-18 07:23:00,
2018-01-18 08:28:00,1.7,-2.6,1018.8,SW,225,2.6,3.5,73,0.0,,,0.0,Sint +Wind +PI,2018-01-18 07:28:00,
2018-01-18 08:33:00,1.8,-2.5,1018.8,North,0,2.6,3.5,73,0.0,,,0.0,Sint +Wind +PI,2018-01-18 07:33:00,
2018-01-18 08:38:00,1.9,-2.4,1018.8,North,0,0.0,0.0,73,0.0,,,0.0,Sint +Wind +PI,2018-01-18 07:38:00,
2018-01-18 08:43:00,2.1,-2.2,1019.2,North,0,2.6,3.5,73,0.0,,,0.0,Sint +Wind +PI,2018-01-18 07:43:00,
2018-01-18 08:48:00,2.3,-2.1,1018.8,West,270,2.6,5.0,73,0.0,,,0.0,Sint +Wind +PI,2018-01-18 07:48:00,
2018-01-18 08:53:00,2.5,-1.8,1019.2,West,270,1.1,3.5,73,0.0,,,0.0,Sint +Wind +PI,2018-01-18 07:53:00,
2018-01-18 08:58:00,2.7,-1.8,1019.2,SW,225,2.6,3.5,72,0.0,,,0.0,Sint +Wind +PI,2018-01-18 07:58:00,
2018-01-18 09:03:00,2.8,-1.7,1018.8,South,180,1.1,2.6,72,0.0,,,0.0,Sint +Wind +PI,2018-01-18 08:03:00,
2018-01-18 09:08:00,3.1,-1.4,1019.2,NW,315,3.5,5.0,72,0.0,,,0.0,Sint +Wind +PI,2018-01-18 08:08:00,
2018-01-18 09:13:00,3.2,-1.6,1019.5,North,0,1.1,3.5,71,0.0,,,0.0,Sint +Wind +PI,2018-01-18 08:13:00,
2018-01-18 09:18:00,3.4,-1.3,1019.2,North,0,0.0,1.1,71,0.0,,,0.0,Sint +Wind +PI,2018-01-18 08:18:00,
2018-01-18 09:23:00,3.7,-1.1,1019.2,SSW,202,1.1,2.6,71,0.0,,,0.0,Sint +Wind +PI,2018-01-18 08:23:00,
2018-01-18 09:28:00,4.0,-0.6,1019.2,South,180,1.1,3.5,72,0.0,,,0.0,Sint +Wind +PI,2018-01-18 08:28:00,
2018-01-18 09:33:00,4.3,-0.5,1019.5,South,180,3.5,7.2,71,0.0,,,0.0,Sint +Wind +PI,2018-01-18 08:33:00,
2018-01-18 09:38:00,4.6,-0.2,1019.5,South,180,2.6,3.5,71,0.0,,,0.0,Sint +Wind +PI,2018-01-18 08:38:00,
2018-01-18 09:43:00,4.9,-0.1,1019.5,SSW,202,1.1,2.6,70,0.0,,,0.0,Sint +Wind +PI,2018-01-18 08:43:00,
2018-01-18 09:48:00,5.1,0.1,1019.5,SW,225,1.1,2.6,70,0.0,,,0.0,Sint +Wind +PI,2018-01-18 08:48:00,
2018-01-18 09:53:00,5.4,0.4,1019.5,South,180,2.6,5.0,70,0.0,,,0.0,Sint +Wind +PI,2018-01-18 08:53:00,
2018-01-18 09:58:00,5.6,0.4,1019.5,North,0,2.6,3.5,69,0.0,,,0.0,Sint +Wind +PI,2018-01-18 08:58:00,
2018-01-18 10:03:00,5.8,0.6,1019.9,NW,315,2.6,3.5,69,0.0,,,0.0,Sint +Wind +PI,2018-01-18 09:03:00,
2018-01-18 10:08:00,6.3,0.8,1019.9,SW,225,2.6,3.5,68,0.0,,,0.0,Sint +Wind +PI,2018-01-18 09:08:00,
2018-01-18 10:14:00,6.8,1.1,1019.9,SW,225,1.1,2.6,67,0.0,,,0.0,Sint +Wind +PI,2018-01-18 09:14:00,
2018-01-18 10:19:00,7.4,1.4,1020.2,North,0,2.6,5.0,66,0.0,,,0.0,Sint +Wind +PI,2018-01-18 09:19:00,
2018-01-18 10:24:00,7.8,0.7,1020.2,North,0,2.6,3.5,61,0.0,,,0.0,Sint +Wind +PI,2018-01-18 09:24:00,
2018-01-18 10:29:00,8.1,0.8,1020.2,North,0,2.6,3.5,60,0.0,,,0.0,Sint +Wind +PI,2018-01-18 09:29:00,
2018-01-18 10:34:00,8.4,1.1,1019.9,North,0,2.6,3.5,60,0.0,,,0.0,Sint +Wind +PI,2018-01-18 09:34:00,
2018-01-18 10:39:00,8.7,1.1,1019.9,North,0,2.6,3.5,59,0.0,,,0.0,Sint +Wind +PI,2018-01-18 09:39:00,
2018-01-18 10:44:00,9.3,1.9,1019.9,SW,225,1.1,2.6,60,0.0,,,0.0,Sint +Wind +PI,2018-01-18 09:44:00,
2018-01-18 10:49:00,9.7,2.3,1020.2,NW,315,1.1,2.6,60,0.0,,,0.0,Sint +Wind +PI,2018-01-18 09:49:00,
2018-01-18 10:54:00,10.2,2.8,1019.9,SW,225,1.1,2.6,60,0.0,,,0.0,Sint +Wind +PI,2018-01-18 09:54:00,
2018-01-18 10:59:00,11.1,3.4,1019.9,NW,315,0.0,1.1,59,0.0,,,0.0,Sint +Wind +PI,2018-01-18 09:59:00,
2018-01-18 11:04:00,11.2,3.2,1019.9,NE,45,2.6,3.5,58,0.0,,,0.0,Sint +Wind +PI,2018-01-18 10:04:00,
2018-01-18 11:09:00,12.1,3.6,1019.9,North,0,0.0,2.6,56,0.0,,,0.0,Sint +Wind +PI,2018-01-18 10:09:00,
2018-01-18 11:14:00,12.7,2.8,1019.9,South,180,0.0,1.1,51,0.0,,,0.0,Sint +Wind +PI,2018-01-18 10:14:00,
2018-01-18 11:19:00,13.6,3.4,1019.5,South,180,1.1,2.6,50,0.0,,,0.0,Sint +Wind +PI,2018-01-18 10:19:00,
2018-01-18 11:24:00,13.7,3.4,1019.9,SE,135,1.1,2.6,50,0.0,,,0.0,Sint +Wind +PI,2018-01-18 10:24:00,
2018-01-18 11:29:00,13.7,2.9,1019.5,South,180,2.6,5.0,48,0.0,,,0.0,Sint +Wind +PI,2018-01-18 10:29:00,
2018-01-18 11:34:00,14.0,3.7,1019.5,WSW,247,0.0,1.1,50,0.0,,,0.0,Sint +Wind +PI,2018-01-18 10:34:00,
2018-01-18 11:39:00,14.2,3.6,1019.5,South,180,1.1,2.6,49,0.0,,,0.0,Sint +Wind +PI,2018-01-18 10:39:00,
2018-01-18 11:44:00,14.4,4.1,1019.5,South,180,2.6,3.5,50,0.0,,,0.0,Sint +Wind +PI,2018-01-18 10:44:00,
2018-01-18 11:49:00,14.4,4.1,1019.2,SE,135,2.6,3.5,50,0.0,,,0.0,Sint +Wind +PI,2018-01-18 10:49:00,
2018-01-18 11:54:00,14.1,3.8,1019.2,SE,135,2.6,5.0,50,0.0,,,0.0,Sint +Wind +PI,2018-01-18 10:54:00,
2018-01-18 11:59:00,14.0,4.0,1019.2,South,180,6.1,7.2,51,0.0,,,0.0,Sint +Wind +PI,2018-01-18 10:59:00,
2018-01-18 12:04:00,13.9,3.9,1019.2,South,180,6.1,7.2,51,0.0,,,0.0,Sint +Wind +PI,2018-01-18 11:04:00,
2018-01-18 12:09:00,13.7,4.0,1018.8,South,180,5.0,7.2,52,0.0,,,0.0,Sint +Wind +PI,2018-01-18 11:09:00,
2018-01-18 12:14:00,13.5,3.6,1018.8,South,180,1.1,3.5,51,0.0,,,0.0,Sint +Wind +PI,2018-01-18 11:14:00,
2018-01-18 12:19:00,13.7,3.7,1018.8,South,180,5.0,7.2,51,0.0,,,0.0,Sint +Wind +PI,2018-01-18 11:19:00,
2018-01-18 12:24:00,14.1,4.4,1018.5,SW,225,3.5,5.0,52,0.0,,,0.0,Sint +Wind +PI,2018-01-18 11:24:00,
2018-01-18 12:29:00,14.4,4.4,1018.8,South,180,5.0,6.1,51,0.0,,,0.0,Sint +Wind +PI,2018-01-18 11:29:00,
2018-01-18 12:34:00,14.4,3.5,1018.5,South,180,11.1,13.4,48,0.0,,,0.0,Sint +Wind +PI,2018-01-18 11:34:00,
2018-01-18 12:39:00,14.1,2.9,1018.5,South,180,7.2,11.1,47,0.0,,,0.0,Sint +Wind +PI,2018-01-18 11:39:00,
2018-01-18 12:44:00,13.9,3.3,1018.5,South,180,8.7,9.7,49,0.0,,,0.0,Sint +Wind +PI,2018-01-18 11:44:00,
2018-01-18 12:49:00,13.9,3.3,1018.5,South,180,6.1,8.7,49,0.0,,,0.0,Sint +Wind +PI,2018-01-18 11:49:00,
2018-01-18 12:55:00,13.9,3.7,1018.5,South,180,6.1,7.2,50,0.0,,,0.0,Sint +Wind +PI,2018-01-18 11:55:00,
2018-01-18 13:00:00,14.2,3.6,1018.2,South,180,9.7,13.4,49,0.0,,,0.0,Sint +Wind +PI,2018-01-18 12:00:00,
2018-01-18 13:05:00,14.6,3.4,1018.2,South,180,6.1,8.7,47,0.0,,,0.0,Sint +Wind +PI,2018-01-18 12:05:00,
2018-01-18 13:10:00,14.9,4.0,1018.2,SW,225,8.7,11.1,48,0.0,,,0.0,Sint +Wind +PI,2018-01-18 12:10:00,
2018-01-18 13:15:00,14.5,3.0,1017.8,South,180,9.7,13.4,46,0.0,,,0.0,Sint +Wind +PI,2018-01-18 12:15:00,
2018-01-18 13:20:00,13.9,2.5,1017.8,South,180,8.7,11.1,46,0.0,,,0.0,Sint +Wind +PI,2018-01-18 12:20:00,
2018-01-18 13:25:00,13.5,2.7,1017.8,South,180,8.7,11.1,48,0.0,,,0.0,Sint +Wind +PI,2018-01-18 12:25:00,
2018-01-18 13:30:00,13.2,2.7,1017.5,South,180,7.2,8.7,49,0.0,,,0.0,Sint +Wind +PI,2018-01-18 12:30:00,
2018-01-18 13:35:00,13.1,2.9,1017.5,SE,135,7.2,11.1,50,0.0,,,0.0,Sint +Wind +PI,2018-01-18 12:35:00,
2018-01-18 13:40:00,12.9,2.7,1017.5,South,180,7.2,8.7,50,0.0,,,0.0,Sint +Wind +PI,2018-01-18 12:40:00,
2018-01-18 13:45:00,12.8,2.6,1017.5,SSE,157,6.1,8.7,50,0.0,,,0.0,Sint +Wind +PI,2018-01-18 12:45:00,
2018-01-18 13:50:00,12.7,2.6,1017.2,South,180,7.2,8.7,50,0.0,,,0.0,Sint +Wind +PI,2018-01-18 12:50:00,
2018-01-18 13:55:00,12.7,2.6,1017.5,South,180,8.7,12.2,50,0.0,,,0.0,Sint +Wind +PI,2018-01-18 12:55:00,
2018-01-18 14:00:00,12.6,2.4,1017.5,South,180,8.7,11.1,50,0.0,,,0.0,Sint +Wind +PI,2018-01-18 13:00:00,
2018-01-18 14:05:00,12.6,2.4,1017.5,South,180,8.7,11.1,50,0.0,,,0.0,Sint +Wind +PI,2018-01-18 13:05:00,
2018-01-18 14:10:00,12.5,2.3,1017.5,South,180,7.2,11.1,50,0.0,,,0.0,Sint +Wind +PI,2018-01-18 13:10:00,
2018-01-18 14:15:00,12.4,3.1,1017.2,South,180,9.7,11.1,53,0.0,,,0.0,Sint +Wind +PI,2018-01-18 13:15:00,
2018-01-18 14:20:00,12.4,2.8,1017.2,South,180,8.7,11.1,52,0.0,,,0.0,Sint +Wind +PI,2018-01-18 13:20:00,
2018-01-18 14:25:00,12.3,2.7,1017.2,South,180,8.7,12.2,52,0.0,,,0.0,Sint +Wind +PI,2018-01-18 13:25:00,
2018-01-18 14:30:00,12.3,3.0,1017.2,SSW,202,6.1,7.2,53,0.0,,,0.0,Sint +Wind +PI,2018-01-18 13:30:00,
2018-01-18 14:35:00,12.3,3.0,1017.2,SSW,202,11.1,12.2,53,0.0,,,0.0,Sint +Wind +PI,2018-01-18 13:35:00,
2018-01-18 14:40:00,12.3,3.3,1016.8,South,180,7.2,9.7,54,0.0,,,0.0,Sint +Wind +PI,2018-01-18 13:40:00,
2018-01-18 14:45:00,12.3,3.5,1016.8,SSW,202,6.1,7.2,55,0.0,,,0.0,Sint +Wind +PI,2018-01-18 13:45:00,
2018-01-18 14:50:00,12.3,3.3,1016.8,SSW,202,6.1,7.2,54,0.0,,,0.0,Sint +Wind +PI,2018-01-18 13:50:00,
2018-01-18 14:55:00,12.3,3.3,1016.8,South,180,9.7,12.2,54,0.0,,,0.0,Sint +Wind +PI,2018-01-18 13:55:00,
2018-01-18 15:00:00,12.3,3.3,1016.8,SW,225,6.1,7.2,54,0.0,,,0.0,Sint +Wind +PI,2018-01-18 14:00:00,
2018-01-18 15:05:00,12.4,3.6,1016.8,West,270,6.1,8.7,55,0.0,,,0.0,Sint +Wind +PI,2018-01-18 14:05:00,
2018-01-18 15:10:00,12.4,3.9,1016.8,South,180,5.0,8.7,56,0.0,,,0.0,Sint +Wind +PI,2018-01-18 14:10:00,
2018-01-18 15:15:00,12.4,3.6,1016.8,SSE,157,5.0,6.1,55,0.0,,,0.0,Sint +Wind +PI,2018-01-18 14:15:00,
2018-01-18 15:20:00,12.4,3.9,1016.8,South,180,6.1,7.2,56,0.0,,,0.0,Sint +Wind +PI,2018-01-18 14:20:00,
2018-01-18 15:25:00,12.4,3.9,1016.8,South,180,6.1,7.2,56,0.0,,,0.0,Sint +Wind +PI,2018-01-18 14:25:00,
2018-01-18 15:30:00,12.3,4.0,1016.8,SE,135,7.2,9.7,57,0.0,,,0.0,Sint +Wind +PI,2018-01-18 14:30:00,
2018-01-18 15:35:00,12.3,4.3,1016.8,South,180,12.2,17.2,58,0.0,,,0.0,Sint +Wind +PI,2018-01-18 14:35:00,
2018-01-18 15:40:00,12.4,3.9,1016.8,SSW,202,7.2,8.7,56,0.0,,,0.0,Sint +Wind +PI,2018-01-18 14:40:00,
2018-01-18 15:45:00,12.4,4.8,1016.8,South,180,7.2,11.1,60,0.0,,,0.0,Sint +Wind +PI,2018-01-18 14:45:00,
2018-01-18 15:50:00,12.5,4.7,1016.8,South,180,11.1,14.8,59,0.0,,,0.0,Sint +Wind +PI,2018-01-18 14:50:00,
2018-01-18 15:55:00,12.7,5.6,1016.8,SW,225,12.2,17.2,62,0.0,,,0.0,Sint +Wind +PI,2018-01-18 14:55:00,
2018-01-18 16:00:00,12.9,6.0,1016.8,SW,225,12.2,20.9,63,0.0,,,0.0,Sint +Wind +PI,2018-01-18 15:00:00,
2018-01-18 16:05:00,12.9,6.0,1016.5,SW,225,12.2,20.9,63,0.0,,,0.0,Sint +Wind +PI,2018-01-18 15:05:00,
2018-01-18 16:10:00,13.0,6.1,1016.5,SW,225,13.4,17.2,63,0.0,,,0.0,Sint +Wind +PI,2018-01-18 15:10:00,
2018-01-18 16:15:00,13.1,6.0,1016.1,SW,225,14.8,19.5,62,0.0,,,0.0,Sint +Wind +PI,2018-01-18 15:15:00,
2018-01-18 16:20:00,13.2,5.8,1016.1,NW,315,8.7,14.8,61,0.0,,,0.0,Sint +Wind +PI,2018-01-18 15:20:00,
2018-01-18 16:25:00,13.2,6.1,1016.1,SW,225,8.7,12.2,62,0.0,,,0.0,Sint +Wind +PI,2018-01-18 15:25:00,
2018-01-18 16:30:00,13.2,5.4,1015.8,NW,315,9.7,12.2,59,0.0,,,0.0,Sint +Wind +PI,2018-01-18 15:30:00,
2018-01-18 16:35:00,13.2,5.1,1015.8,South,180,7.2,8.7,58,0.0,,,0.0,Sint +Wind +PI,2018-01-18 15:35:00,
2018-01-18 16:40:00,13.1,4.8,1015.8,South,180,6.1,7.2,57,0.0,,,0.0,Sint +Wind +PI,2018-01-18 15:40:00,
2018-01-18 16:45:00,12.9,4.1,1015.8,South,180,2.6,3.5,55,0.0,,,0.0,Sint +Wind +PI,2018-01-18 15:45:00,
2018-01-18 16:50:00,12.8,4.2,1015.5,South,180,2.6,5.0,56,0.0,,,0.0,Sint +Wind +PI,2018-01-18 15:50:00,
2018-01-18 16:55:00,12.7,3.9,1015.5,SE,135,5.0,6.1,55,0.0,,,0.0,Sint +Wind +PI,2018-01-18 15:55:00,
2018-01-18 17:00:00,12.4,3.9,1015.8,SE,135,5.0,6.1,56,0.0,,,0.0,Sint +Wind +PI,2018-01-18 16:00:00,
2018-01-18 17:05:00,12.2,3.2,1016.1,SSW,202,3.5,6.1,54,0.0,,,0.0,Sint +Wind +PI,2018-01-18 16:05:00,
2018-01-18 17:10:00,12.0,3.0,1016.1,SE,135,3.5,5.0,54,0.0,,,0.0,Sint +Wind +PI,2018-01-18 16:10:00,
2018-01-18 17:15:00,11.8,3.1,1015.8,SE,135,5.0,7.2,55,0.0,,,0.0,Sint +Wind +PI,2018-01-18 16:15:00,
2018-01-18 17:20:00,11.7,3.2,1015.8,SW,225,5.0,6.1,56,0.0,,,0.0,Sint +Wind +PI,2018-01-18 16:20:00,
2018-01-18 17:25:00,11.7,3.7,1015.8,South,180,3.5,6.1,58,0.0,,,0.0,Sint +Wind +PI,2018-01-18 16:25:00,
2018-01-18 17:30:00,11.6,3.9,1016.1,South,180,1.1,2.6,59,0.0,,,0.0,Sint +Wind +PI,2018-01-18 16:30:00,
2018-01-18 17:35:00,11.6,4.1,1016.5,South,180,0.0,0.0,60,0.0,,,0.0,Sint +Wind +PI,2018-01-18 16:35:00,
2018-01-18 17:40:00,11.5,4.0,1016.5,South,180,2.6,5.0,60,0.0,,,0.0,Sint +Wind +PI,2018-01-18 16:40:00,
2018-01-18 17:45:00,11.6,4.1,1016.5,South,180,3.5,6.1,60,0.0,,,0.0,Sint +Wind +PI,2018-01-18 16:45:00,
2018-01-18 17:50:00,11.7,4.4,1016.1,SE,135,7.2,9.7,61,0.0,,,0.0,Sint +Wind +PI,2018-01-18 16:50:00,
2018-01-18 17:55:00,11.8,4.5,1016.1,South,180,5.0,6.1,61,0.0,,,0.0,Sint +Wind +PI,2018-01-18 16:55:00,
2018-01-18 18:00:00,11.9,4.6,1015.8,South,180,2.6,5.0,61,0.0,,,0.0,Sint +Wind +PI,2018-01-18 17:00:00,
2018-01-18 18:05:00,11.9,4.6,1016.1,South,180,2.6,5.0,61,0.0,,,0.0,Sint +Wind +PI,2018-01-18 17:05:00,
2018-01-18 18:10:00,12.0,4.5,1016.1,South,180,5.0,6.1,60,0.0,,,0.0,Sint +Wind +PI,2018-01-18 17:10:00,
2018-01-18 18:15:00,11.9,4.4,1016.1,South,180,0.0,1.1,60,0.0,,,0.0,Sint +Wind +PI,2018-01-18 17:15:00,
2018-01-18 18:20:00,11.8,4.3,1016.1,SSE,157,2.6,5.0,60,0.0,,,0.0,Sint +Wind +PI,2018-01-18 17:20:00,
2018-01-18 18:25:00,11.9,3.9,1016.1,South,180,3.5,5.0,58,0.0,,,0.0,Sint +Wind +PI,2018-01-18 17:25:00,
2018-01-18 18:30:00,12.0,3.2,1016.1,South,180,2.6,3.5,55,0.0,,,0.0,Sint +Wind +PI,2018-01-18 17:30:00,
2018-01-18 18:35:00,11.9,3.4,1016.1,South,180,2.6,5.0,56,0.0,,,0.0,Sint +Wind +PI,2018-01-18 17:35:00,
2018-01-18 18:40:00,11.9,3.7,1016.1,South,180,5.0,7.2,57,0.0,,,0.0,Sint +Wind +PI,2018-01-18 17:40:00,
2018-01-18 18:45:00,12.0,2.7,1016.1,South,180,7.2,9.7,53,0.0,,,0.0,Sint +Wind +PI,2018-01-18 17:45:00,
2018-01-18 18:46:00,12.1,2.6,1016.1,South,180,7.2,9.7,52,0.0,,,0.0,Sint +Wind +PI,2018-01-18 17:46:00,
2018-01-18 18:51:00,12.2,2.1,1016.1,South,180,5.0,7.2,50,0.0,,,0.0,Sint +Wind +PI,2018-01-18 17:51:00,
2018-01-18 18:56:00,12.4,2.3,1016.1,SW,225,8.7,12.2,50,0.0,,,0.0,Sint +Wind +PI,2018-01-18 17:56:00,
2018-01-18 19:01:00,12.5,1.8,1016.1,SW,225,9.7,11.1,48,0.0,,,0.0,Sint +Wind +PI,2018-01-18 18:01:00,
2018-01-18 19:06:00,12.4,2.8,1016.1,SSW,202,6.1,7.2,52,0.0,,,0.0,Sint +Wind +PI,2018-01-18 18:06:00,
2018-01-18 19:11:00,12.4,2.6,1016.1,South,180,9.7,14.8,51,0.0,,,0.0,Sint +Wind +PI,2018-01-18 18:11:00,
2018-01-18 19:16:00,12.4,2.6,1016.1,South,180,6.1,9.7,51,0.0,,,0.0,Sint +Wind +PI,2018-01-18 18:16:00,
2018-01-18 19:21:00,12.4,3.1,1016.5,South,180,7.2,9.7,53,0.0,,,0.0,Sint +Wind +PI,2018-01-18 18:21:00,
2018-01-18 19:26:00,12.3,3.8,1016.1,SW,225,9.7,12.2,56,0.0,,,0.0,Sint +Wind +PI,2018-01-18 18:26:00,
2018-01-18 19:31:00,12.3,4.0,1016.5,South,180,3.5,5.0,57,0.0,,,0.0,Sint +Wind +PI,2018-01-18 18:31:00,
2018-01-18 19:36:00,12.2,4.7,1016.5,South,180,2.6,3.5,60,0.0,,,0.0,Sint +Wind +PI,2018-01-18 18:36:00,
2018-01-18 19:41:00,11.8,4.8,1016.5,SSE,157,7.2,8.7,62,0.0,,,0.0,Sint +Wind +PI,2018-01-18 18:41:00,
2018-01-18 19:46:00,11.6,4.6,1016.5,South,180,2.6,3.5,62,0.0,,,0.0,Sint +Wind +PI,2018-01-18 18:46:00,
2018-01-18 19:52:00,11.3,5.2,1016.5,South,180,3.5,6.1,66,0.0,,,0.0,Sint +Wind +PI,2018-01-18 18:52:00,
2018-01-18 19:57:00,11.2,5.3,1016.1,South,180,2.6,3.5,67,0.0,,,0.0,Sint +Wind +PI,2018-01-18 18:57:00,
2018-01-18 20:02:00,11.1,5.2,1016.1,South,180,2.6,2.6,67,0.0,,,0.0,Sint +Wind +PI,2018-01-18 19:02:00,
2018-01-18 20:07:00,11.0,5.1,1016.1,South,180,0.0,1.1,67,0.0,,,0.0,Sint +Wind +PI,2018-01-18 19:07:00,
2018-01-18 20:12:00,10.9,5.2,1016.1,South,180,0.0,0.0,68,0.0,,,0.0,Sint +Wind +PI,2018-01-18 19:12:00,
2018-01-18 20:17:00,10.8,5.6,1016.1,NE,45,2.6,3.5,70,0.0,,,0.0,Sint +Wind +PI,2018-01-18 19:17:00,
2018-01-18 20:22:00,10.6,5.3,1016.1,NE,45,2.6,3.5,70,0.0,,,0.0,Sint +Wind +PI,2018-01-18 19:22:00,
2018-01-18 20:27:00,10.4,5.2,1015.8,South,180,1.1,1.1,70,0.0,,,0.0,Sint +Wind +PI,2018-01-18 19:27:00,
2018-01-18 20:32:00,10.2,5.0,1015.8,North,0,0.0,1.1,70,0.0,,,0.0,Sint +Wind +PI,2018-01-18 19:32:00,
2018-01-18 20:37:00,10.1,4.9,1015.8,South,180,1.1,2.6,70,0.0,,,0.0,Sint +Wind +PI,2018-01-18 19:37:00,
2018-01-18 20:42:00,10.0,4.8,1015.8,SW,225,1.1,2.6,70,0.0,,,0.0,Sint +Wind +PI,2018-01-18 19:42:00,
2018-01-18 20:47:00,9.9,4.7,1015.8,NE,45,2.6,3.5,70,0.0,,,0.0,Sint +Wind +PI,2018-01-18 19:47:00,
2018-01-18 20:52:00,9.7,4.5,1015.8,SE,135,1.1,2.6,70,0.0,,,0.0,Sint +Wind +PI,2018-01-18 19:52:00,
2018-01-18 20:57:00,9.7,4.7,1016.1,South,180,0.0,0.0,71,0.0,,,0.0,Sint +Wind +PI,2018-01-18 19:57:00,
2018-01-18 21:02:00,9.6,4.6,1015.8,South,180,0.0,0.0,71,0.0,,,0.0,Sint +Wind +PI,2018-01-18 20:02:00,
2018-01-18 21:07:00,9.5,4.5,1015.8,South,180,1.1,2.6,71,0.0,,,0.0,Sint +Wind +PI,2018-01-18 20:07:00,
2018-01-18 21:12:00,9.5,4.5,1015.8,South,180,0.0,1.1,71,0.0,,,0.0,Sint +Wind +PI,2018-01-18 20:12:00,
2018-01-18 21:18:00,9.4,4.6,1015.8,SW,225,0.0,0.0,72,0.0,,,0.0,Sint +Wind +PI,2018-01-18 20:18:00,
2018-01-18 21:23:00,9.2,4.6,1015.8,NE,45,2.6,3.5,73,0.0,,,0.0,Sint +Wind +PI,2018-01-18 20:23:00,
2018-01-18 21:28:00,9.2,4.8,1015.8,NE,45,1.1,2.6,74,0.0,,,0.0,Sint +Wind +PI,2018-01-18 20:28:00,
2018-01-18 21:33:00,9.1,4.7,1015.8,SW,225,0.0,1.1,74,0.0,,,0.0,Sint +Wind +PI,2018-01-18 20:33:00,
2018-01-18 21:38:00,9.0,4.6,1015.8,SW,225,0.0,1.1,74,0.0,,,0.0,Sint +Wind +PI,2018-01-18 20:38:00,
2018-01-18 21:43:00,9.1,4.9,1015.5,South,180,2.6,3.5,75,0.0,,,0.0,Sint +Wind +PI,2018-01-18 20:43:00,
2018-01-18 21:49:00,9.1,4.9,1015.5,NW,315,1.1,3.5,75,0.0,,,0.0,Sint +Wind +PI,2018-01-18 20:49:00,
2018-01-18 21:55:00,9.1,4.9,1015.5,North,0,1.1,2.6,75,0.0,,,0.0,Sint +Wind +PI,2018-01-18 20:55:00,
2018-01-18 22:00:00,9.0,4.8,1015.5,West,270,0.0,0.0,75,0.0,,,0.0,Sint +Wind +PI,2018-01-18 21:00:00,
2018-01-18 22:05:00,9.0,4.8,1015.5,West,270,0.0,0.0,75,0.0,,,0.0,Sint +Wind +PI,2018-01-18 21:05:00,
2018-01-18 22:10:00,8.9,5.1,1015.5,NE,45,2.6,3.5,77,0.0,,,0.0,Sint +Wind +PI,2018-01-18 21:10:00,
2018-01-18 22:15:00,8.9,5.1,1015.5,NE,45,3.5,5.0,77,0.0,,,0.0,Sint +Wind +PI,2018-01-18 21:15:00,
2018-01-18 22:20:00,8.8,5.2,1015.5,North,0,1.1,2.6,78,0.0,,,0.0,Sint +Wind +PI,2018-01-18 21:20:00,
2018-01-18 22:25:00,8.8,5.4,1015.5,NE,45,3.5,5.0,79,0.0,,,0.0,Sint +Wind +PI,2018-01-18 21:25:00,
2018-01-18 22:30:00,8.8,5.6,1015.5,South,180,1.1,2.6,80,0.0,,,0.0,Sint +Wind +PI,2018-01-18 21:30:00,
2018-01-18 22:35:00,8.8,5.6,1015.5,NE,45,1.1,2.6,80,0.0,,,0.0,Sint +Wind +PI,2018-01-18 21:35:00,
2018-01-18 22:40:00,8.8,5.6,1015.1,NE,45,5.0,6.1,80,0.0,,,0.0,Sint +Wind +PI,2018-01-18 21:40:00,
2018-01-18 22:45:00,8.8,5.6,1015.1,North,0,1.1,2.6,80,0.0,,,0.0,Sint +Wind +PI,2018-01-18 21:45:00,
2018-01-18 22:50:00,8.8,5.6,1015.1,South,180,1.1,2.6,80,0.0,,,0.0,Sint +Wind +PI,2018-01-18 21:50:00,
2018-01-18 22:55:00,8.8,5.6,1015.1,South,180,0.0,0.0,80,0.0,,,0.0,Sint +Wind +PI,2018-01-18 21:55:00,
2018-01-18 23:00:00,8.8,5.6,1015.1,SW,225,1.1,2.6,80,0.0,,,0.0,Sint +Wind +PI,2018-01-18 22:00:00,
2018-01-18 23:05:00,8.8,5.6,1015.1,South,180,1.1,2.6,80,0.0,,,0.0,Sint +Wind +PI,2018-01-18 22:05:00,
2018-01-18 23:10:00,8.8,5.4,1015.1,SW,225,1.1,2.6,79,0.0,,,0.0,Sint +Wind +PI,2018-01-18 22:10:00,
2018-01-18 23:16:00,8.8,5.4,1015.1,NE,45,2.6,3.5,79,0.0,,,0.0,Sint +Wind +PI,2018-01-18 22:16:00,
2018-01-18 23:21:00,8.8,5.4,1015.1,South,180,1.1,2.6,79,0.0,,,0.0,Sint +Wind +PI,2018-01-18 22:21:00,
2018-01-18 23:26:00,8.8,5.4,1015.1,South,180,1.1,2.6,79,0.0,,,0.0,Sint +Wind +PI,2018-01-18 22:26:00,
2018-01-18 23:31:00,8.8,5.4,1014.8,South,180,1.1,2.6,79,0.0,,,0.0,Sint +Wind +PI,2018-01-18 22:31:00,
2018-01-18 23:36:00,8.8,5.4,1014.8,West,270,2.6,3.5,79,0.0,,,0.0,Sint +Wind +PI,2018-01-18 22:36:00,
2018-01-18 23:41:00,8.8,5.4,1014.8,North,0,0.0,1.1,79,0.0,,,0.0,Sint +Wind +PI,2018-01-18 22:41:00,
2018-01-18 23:46:00,8.9,5.4,1014.8,NE,45,2.6,3.5,79,0.0,,,0.0,Sint +Wind +PI,2018-01-18 22:46:00,
2018-01-18 23:51:00,8.9,5.3,1015.1,North,0,2.6,3.5,78,0.0,,,0.0,Sint +Wind +PI,2018-01-18 22:51:00,
2018-01-18 23:56:00,9.0,5.4,1014.8,NE,45,0.0,0.0,78,0.0,,,0.0,Sint +Wind +PI,2018-01-18 22:56:00,